Home   Weather   Hagen   Past weeks

Flag for Germany Past Weather in Hagen, North Rhine-Westphalia, Germany — Yesterday and Last 2 Weeks

Now
55 °F

Sunny.


Feels Like: 52 °F
Forecast: 36 / 46 °F
Wind: 15 mph from Southwest

Location: Dortmund / Wickede

Current Time: Apr 24, 2017 at 5:29:45 pm

Latest Report: Apr 24, 2017 at 4:50 pm


Visibility: 10 mi

Pressure: 29.86 "Hg

Humidity: 44%

Dew Point: 34 °F

Location of HagenLocation

Past Weather in Hagen — Graph

°F

Hagen Temperature Yesterday

Maximum temperature yesterday: 48 °F (at 5:20 pm)
Minimum temperature yesterday: 37 °F (at 5:20 am)
Average temperature yesterday: 42 °F

High & Low Weather Summary for the Past Weeks

 TemperatureHumidityPressure
High73 °F (Apr 9, 5:20 pm)93% (Apr 14, 6:50 am)30.60 "Hg (Apr 14, 6:50 am)
Low25 °F (Apr 20, 5:20 am)28% (Apr 20, 3:20 pm)29.86 "Hg (Apr 15, 6:50 am)
Average45 °F65%30.17 "Hg
* Reported Apr 9 3:20 pm — Apr 24 3:50 pm, Hagen, Weather by CustomWeather, © 2017

Note: Actual official high and low records may vary slightly from our data, if they occured in-between our weather recording intervals... More about our weather records

Advertising

Hagen Weather History for the Previous 24 Hours

Scroll right to see more
 ConditionsComfort  
Time TempWeatherWind HumidityBarometerVisibility
3:50 pm
Mon, Apr 24
55 °FSunny.16 mph44%29.89 "Hg10 mi
3:20 pm55 °FPassing clouds.17 mph47%29.89 "HgN/A
2:50 pm57 °FPassing clouds.16 mph44%29.92 "HgN/A
2:20 pm55 °FPassing clouds.14 mph44%29.92 "HgN/A
1:50 pm55 °FPassing clouds.16 mph47%29.95 "HgN/A
1:20 pm54 °FSunny.18 mph47%29.95 "Hg10 mi
12:50 pm52 °FSunny.16 mph50%29.98 "Hg10 mi
12:20 pm54 °FPassing clouds.16 mph47%29.98 "HgN/A
11:50 am52 °FPassing clouds.17 mph47%29.98 "HgN/A
11:20 am52 °FSunny.15 mph47%30.01 "Hg10 mi
10:50 am50 °FPassing clouds.13 mph50%30.01 "HgN/A
10:20 am46 °FSunny.14 mph53%30.01 "Hg10 mi
9:50 am48 °FSunny.14 mph54%30.04 "Hg10 mi
9:20 am46 °FSunny.15 mph57%30.04 "Hg10 mi
8:50 am43 °FSunny.12 mph71%30.04 "Hg10 mi
8:20 am41 °FSunny.12 mph70%30.07 "Hg10 mi
7:50 am39 °FSunny.12 mph75%30.07 "Hg10 mi
7:20 am37 °FSunny.12 mph75%30.07 "Hg10 mi
6:50 am36 °FSunny.13 mph81%30.07 "Hg10 mi
6:20 am36 °FSunny.13 mph81%30.07 "Hg10 mi
5:50 am34 °FClear.10 mph87%30.09 "Hg10 mi
5:20 am34 °FClear.12 mph87%30.09 "Hg10 mi
9:50 pm
Sun, Apr 23
37 °FClear.7 mph81%30.24 "Hg10 mi
9:20 pm43 °FClear.7 mph66%30.21 "Hg10 mi
8:50 pm43 °FClear.6 mph66%30.21 "Hg10 mi
8:20 pm41 °FSunny.7 mph70%30.21 "Hg10 mi
7:50 pm43 °FSunny.7 mph71%30.21 "Hg10 mi
7:20 pm45 °FPassing clouds.7 mph66%30.24 "HgN/A
6:50 pm45 °FSunny.9 mph66%30.24 "Hg10 mi
6:20 pm45 °FSunny.9 mph61%30.24 "Hg10 mi
5:50 pm45 °FScattered showers. Partly sunny.13 mph61%30.21 "HgN/A
5:20 pm48 °FPassing clouds.12 mph62%30.24 "HgN/A
Weather by CustomWeather, © 2017

See weather overviewHow to use our weather pages